Weather History for KHSP - July, 2012

Change the Weather History Date:

Sunday, July 22, 2012

  Actual Average (KLWB) Record (KLWB)
Temperature  
Mean Temperature 71 °F 70 °F  
Max Temperature 80 °F 82 °F 95 °F (2011)
Min Temperature 62 °F 59 °F 50 °F (2007)
Degree Days  
Heating Degree Days 0    
Month to date heating degree days  
Since 1 June heating degree days  
Since 1 July heating degree days  
Cooling Degree Days 6    
Month to date cooling degree days  
Year to date cooling degree days  
Since 1 June cooling degree days  
Growing Degree Days 21 (Base 50)    
Moisture  
Dew Point 64 °F    
Average Humidity 89    
Maximum Humidity 100    
Minimum Humidity 47    
Precipitation  
Precipitation 0.02 in 0.14 in 0.52 in (2013)
Month to date precipitation 2.81  
Year to date precipitation 23.72  
Snow  
Snow 0.00 in - - ()
Month to date snowfall  
Since 1 June snowfall  
Since 1 July snowfall  
Snow Depth -    
Sea Level Pressure  
Sea Level Pressure 30.32 in    
Wind  
Wind Speed 5 mph (SW)    
Max Wind Speed 12 mph    
Max Gust Speed 16 mph    
Visibility 5 miles    
Events Fog    
T = Trace of Precipitation, MM = Missing Value Source: NWS Daily Summary

Daily Weather History Graph

Daily Weather History Graph

Search for Another Location

Airport or City:

Trip Planner

Search our weather history database for the weather conditions in past years. The results will help you decide how hot, cold, wet, or windy it might be!

Date:

Astronomy

Jul. 22, 2012 Rise Set
Actual Time 6:14 AM EDT 8:36 PM EDT
Civil Twilight 5:44 AM EDT 9:06 PM EDT
Nautical Twilight 5:07 AM EDT 9:43 PM EDT
Astronomical Twilight 4:26 AM EDT 10:23 PM EDT
Moon 9:53 AM EDT 10:24 PM EDT
Length of Visible Light 15h 21m
Length of Day
14h 22m
Waxing Crescent, 13% of the Moon is Illuminated
Jul 22
Waxing Crescent
Jul 26
First Quarter
Aug 1
Full
Aug 9
Last Quarter
Aug 17
New

Hourly Weather History & Observations

Time (EDT) Temp. Heat Index Dew Point Humidity Pressure Visibility Wind Dir Wind Speed Gust Speed Precip Events Conditions
12:17 AM 62.6 °F - 62.6 °F 100% 30.28 in 0.2 mi Calm Calm - N/A Fog Fog
12:37 AM 62.6 °F - 62.6 °F 100% 30.28 in 0.2 mi East 4.6 mph - N/A Fog Fog
12:57 AM 62.6 °F - 62.6 °F 100% 30.28 in 0.2 mi ESE 5.8 mph - N/A Fog Fog
1:17 AM 62.6 °F - 62.6 °F 100% 30.28 in 0.2 mi ENE 3.5 mph - N/A Fog Fog
1:37 AM 62.6 °F - 62.6 °F 100% 30.28 in 0.2 mi East 3.5 mph - N/A Fog Fog
1:57 AM 62.6 °F - 62.6 °F 100% 30.27 in 0.2 mi Calm Calm - N/A Fog Fog
2:17 AM 62.6 °F - 62.6 °F 100% 30.28 in 0.2 mi Calm Calm - N/A Fog Fog
2:37 AM 62.6 °F - 62.6 °F 100% 30.28 in 0.2 mi East 3.5 mph - N/A Fog Fog
2:57 AM 62.6 °F - 62.6 °F 100% 30.27 in 0.2 mi ESE 3.5 mph - N/A Fog Fog
3:17 AM 62.6 °F - 62.6 °F 100% 30.27 in 0.2 mi Calm Calm - N/A Fog Fog
3:37 AM 62.6 °F - 62.6 °F 100% 30.28 in 0.2 mi Calm Calm - N/A Fog Fog
3:58 AM 62.6 °F - 62.6 °F 100% 30.27 in 0.2 mi SSE 3.5 mph - N/A Fog Fog
4:17 AM 62.6 °F - 62.6 °F 100% 30.27 in 0.2 mi South 3.5 mph - N/A Fog Fog
4:37 AM 62.6 °F - 62.6 °F 100% 30.27 in 0.2 mi SSW 3.5 mph - N/A Fog Fog
4:57 AM 62.6 °F - 62.6 °F 100% 30.28 in 0.2 mi South 5.8 mph - N/A Fog Fog
5:17 AM 62.6 °F - 62.6 °F 100% 30.28 in 0.2 mi SSW 4.6 mph - N/A Fog Fog
5:37 AM 62.6 °F - 62.6 °F 100% 30.28 in 0.5 mi SW 5.8 mph - N/A Fog Fog
5:57 AM 62.6 °F - 62.6 °F 100% 30.29 in 4.0 mi SW 5.8 mph - N/A   Mostly Cloudy
6:17 AM 62.6 °F - 62.6 °F 100% 30.30 in 0.8 mi WSW 6.9 mph - N/A   Overcast
6:37 AM 62.6 °F - 62.6 °F 100% 30.30 in 0.2 mi WSW 6.9 mph - N/A Fog Fog
6:57 AM 62.6 °F - 62.6 °F 100% 30.30 in 0.2 mi West 8.1 mph - N/A Fog Fog
7:17 AM 62.6 °F - 62.6 °F 100% 30.30 in 0.2 mi WSW 6.9 mph - N/A Fog Fog
7:37 AM 64.4 °F - 64.4 °F 100% 30.31 in 0.2 mi WSW 6.9 mph - N/A Fog Fog
7:57 AM 64.4 °F - 64.4 °F 100% 30.32 in 0.2 mi WSW 8.1 mph - N/A Fog Fog
8:17 AM 64.4 °F - 64.4 °F 100% 30.32 in 0.2 mi WSW 6.9 mph - N/A Fog Fog
8:37 AM 64.4 °F - 64.4 °F 100% 30.33 in 0.2 mi WSW 6.9 mph - N/A Fog Fog
8:58 AM 64.4 °F - 64.4 °F 100% 30.33 in 0.2 mi WSW 8.1 mph - N/A Fog Fog
9:37 AM 64.4 °F - 64.4 °F 100% 30.33 in 0.2 mi West 8.1 mph - N/A Fog Fog
9:59 AM 64.4 °F - 64.4 °F 100% 30.34 in 0.2 mi WNW 6.9 mph - N/A Fog Fog
10:17 AM 66.2 °F - 66.2 °F 100% 30.34 in 0.2 mi West 8.1 mph - N/A Fog Fog
10:39 AM 66.2 °F - 66.2 °F 100% 30.34 in 7.0 mi West 6.9 mph - N/A   Mostly Cloudy
10:57 AM 66.2 °F - 66.2 °F 100% 30.34 in 10.0 mi WNW 6.9 mph - 0.01 in   Mostly Cloudy
11:17 AM 69.8 °F - 69.8 °F 100% 30.34 in 7.0 mi WNW 11.5 mph - 0.01 in   Mostly Cloudy
11:37 AM 69.8 °F - 66.2 °F 88% 30.34 in 10.0 mi West 8.1 mph - 0.01 in   Mostly Cloudy
11:57 AM 71.6 °F - 66.2 °F 83% 30.35 in 10.0 mi WNW 11.5 mph - N/A   Scattered Clouds
12:17 PM 73.4 °F - 66.2 °F 78% 30.34 in 10.0 mi West 6.9 mph - N/A   Clear
12:37 PM 71.6 °F - 66.2 °F 83% 30.35 in 10.0 mi WSW 9.2 mph - N/A   Scattered Clouds
12:59 PM 73.4 °F - 62.6 °F 69% 30.35 in 10.0 mi West 8.1 mph - N/A   Mostly Cloudy
1:17 PM 75.2 °F - 64.4 °F 69% 30.34 in 10.0 mi WNW 10.4 mph - N/A   Scattered Clouds
1:39 PM 75.2 °F - 64.4 °F 69% 30.34 in 10.0 mi WSW 10.4 mph - N/A   Scattered Clouds
1:57 PM 77.0 °F - 62.6 °F 61% 30.34 in 10.0 mi West 9.2 mph - N/A   Scattered Clouds
2:19 PM 77.0 °F - 62.6 °F 61% 30.34 in - NW 5.8 mph 16.1 mph N/A   Clear
2:37 PM 78.8 °F - 60.8 °F 54% 30.34 in 10.0 mi WSW 8.1 mph - N/A   Clear
2:57 PM 78.8 °F - 60.8 °F 54% 30.33 in 10.0 mi WNW 6.9 mph - N/A   Clear
3:17 PM 78.8 °F - 60.8 °F 54% 30.33 in 10.0 mi WNW 8.1 mph - N/A   Scattered Clouds
3:37 PM 78.8 °F - 60.8 °F 54% 30.33 in 10.0 mi West 3.5 mph - N/A   Scattered Clouds
3:57 PM 78.8 °F - 59.0 °F 51% 30.32 in 10.0 mi West 10.4 mph - N/A   Clear
4:17 PM 78.8 °F - 59.0 °F 51% 30.32 in 10.0 mi WSW 8.1 mph - N/A   Scattered Clouds
4:37 PM 80.6 °F 81.5 °F 60.8 °F 51% 30.32 in 10.0 mi West 9.2 mph - N/A   Clear
4:57 PM 78.8 °F - 57.2 °F 47% 30.32 in 10.0 mi West 6.9 mph - N/A   Scattered Clouds
5:17 PM 75.2 °F - 69.8 °F 83% 30.33 in 10.0 mi SSE 4.6 mph - N/A   Scattered Clouds
5:57 PM 75.2 °F - 69.8 °F 83% 30.33 in 10.0 mi South 8.1 mph - N/A   Scattered Clouds
6:19 PM 75.2 °F - 69.8 °F 83% 30.33 in 10.0 mi SSE 5.8 mph - N/A   Scattered Clouds
6:37 PM 75.2 °F - 69.8 °F 83% 30.33 in 10.0 mi SSE 4.6 mph - N/A   Scattered Clouds
6:57 PM 73.4 °F - 69.8 °F 88% 30.33 in 10.0 mi South 5.8 mph - N/A   Clear
7:17 PM 73.4 °F - 69.8 °F 88% 30.32 in 10.0 mi South 5.8 mph - N/A   Clear
7:37 PM 71.6 °F - 69.8 °F 94% 30.33 in 10.0 mi South 4.6 mph - N/A   Clear
7:57 PM 73.4 °F - 62.6 °F 69% 30.33 in 10.0 mi West 4.6 mph - N/A   Clear
8:17 PM 71.6 °F - 60.8 °F 69% 30.34 in 10.0 mi WSW 4.6 mph - N/A   Clear
8:37 PM 69.8 °F - 69.8 °F 100% 30.34 in 2.5 mi SSE 4.6 mph - N/A   Scattered Clouds
8:57 PM 69.8 °F - 69.8 °F 100% 30.34 in 2.5 mi South 6.9 mph - N/A   Mostly Cloudy
9:17 PM 69.8 °F - 68.0 °F 94% 30.35 in 3.0 mi South 9.2 mph - N/A   Scattered Clouds
9:38 PM 68.0 °F - 68.0 °F 100% 30.35 in 4.0 mi South 8.1 mph - N/A   Scattered Clouds
9:57 PM 68.0 °F - 68.0 °F 100% 30.36 in 5.0 mi South 4.6 mph - N/A   Scattered Clouds
10:17 PM 66.2 °F - 66.2 °F 100% 30.36 in 7.0 mi SSW 5.8 mph - N/A   Clear
10:37 PM 66.2 °F - 66.2 °F 100% 30.36 in 7.0 mi South 4.6 mph - N/A   Clear
10:57 PM 66.2 °F - 66.2 °F 100% 30.36 in 10.0 mi SSW 5.8 mph - N/A   Scattered Clouds
11:17 PM 66.2 °F - 66.2 °F 100% 30.35 in 10.0 mi SW 5.8 mph - N/A   Scattered Clouds
11:37 PM 66.2 °F - 64.4 °F 94% 30.36 in 10.0 mi SW 8.1 mph - N/A   Clear
11:57 PM 68.0 °F - 66.2 °F 94% 30.36 in 10.0 mi SW 8.1 mph - N/A   Clear